FENGYUN 1C DEB

Satellite information

Favourite Embed

Satellite Type and Status

DEBRISIN ORBIT

Key statistics

Satellite FENGYUN 1C DEB at a glance.

Uptime

9659

Days in orbit

Revolutions

≈ 14.2

Per day

Orbit

SSO

Sun Synchronous Orbit

Inclination

98.1

Latest

Satellite identification and parameters

Extended collection of information and parameters for FENGYUN 1C DEB.

Object identification

Identified? True

Debris? True

Object name: FENGYUN 1C DEB

International designator: 1999-025DDE

Object number (NORAD): 33621

Object ID (CCSDS): 33621

Country: PEOPLES REPUBLIC OF CHINA (PRC)

Current information (Y/N): Y

RCS size: SMALL

Orbital parameters

Period: 101.466 minutes

Inclination: 98.1477 deg

SMA: 7206.219 km

Apoapsis: 1035.084 km

Periapsis: 621.085 km

RAAN: 140.4843 deg

Eccentricy: 0.02872508

Argument of periapsis: 115.3349 deg

Mean anomaly: 247.7874 deg

Mean motion: 14.19193256 rev/day

Mean motion (dot): 0.00001648 rev/day2

B* drag term: 0.00053421534 1/REarth

Two-line elements (TLE)

Creation date: Oct. 12, 2025, 3:37 a.m.

Reference frame: TEME

Reference center: EARTH

Epoch: Oct. 11, 2025, 8:29 p.m. UTC

TLE line 0: 0 FENGYUN 1C DEB

TLE line 1: 1 33621U 99025DDE 25284.85407156 .00001648 00000-0 53422-3 0 9995

TLE line 2: 2 33621 98.1477 140.4843 0287251 115.3349 247.7874 14.19193256633662

Live tracking on map

Real-time ground track for satellite FENGYUN 1C DEB.

In-orbit conjunctions

A list of the most updated potential collisions computed for object FENGYUN 1C DEB.

Target Orbit TCA Probability of collision Miss distance Type
COSMOS 1275 DEB LEO 2024-11-11 05:03:55 0.0001354055 687.0 (m) DEBRIS

Associated space launch

Chinese polar orbiting meteorological satellite

FENGYUN 1C DEB was lifted into orbit during the mission ‘Long March 4B | Feng Yun 1C’, on board a Long March 4B space rocket.

The launch took place on May 10, 1999, 1:33 a.m. from Launch Complex 7.

For more information about the launch, click the button.

Launch to space Long March 4B | Feng Yun 1C
Long March 4B | Feng Yun 1C

Agency: N/A

Status: Launch Successful

Launch date: May 10, 1999, 1:33 a.m. UTC

Rocket: Long March 4B

Launch pad: Launch Complex 7

Location: Taiyuan Satellite Launch Center, People's Republic of China

...

Latest news about this satellite

There are no fresh news available about this satellite. Check back as we update our databases every day.


Newsletter sign-up

Weekly statistics, charts and insights to help you stay on top of the space industry.